Regional Weather Roundup
Issued by NWS Sterling, VA

Home | Current Version | Previous Version | Graphics & Text | Print | Product List | Glossary On
Versions: 1 2 3 4 5 6 7 8 9 10 11 12 13 14 15 16 17 18 19 20 21 22 23 24 25 26 27 28 29 30 31 32 33 34 35 36 37 38 39 40 41 42 43 44 45 46 47 48 49 50
976
ASUS41 KLWX 202311
RWRLWX

REGIONAL WEATHER ROUNDUP
NATIONAL WEATHER SERVICE BALTIMORE MD/WASHINGTON DC
700 PM EDT SUN AUG 20 2017

Note: "FAIR" indicates few or no clouds below 12,000 feet
with no significant weather and/or obstructions to visibility.
 TC=TEMPERATURE CELSIUS

 * =Non NWS site. Station does not report precipitation (e.g. rain,
    snow, etc.), thunder, or fog.

DCZ001-MDZ009-015-VAZ040>042-051-053>054-210000-
WASHINGTON METRO

CITY           SKY/WX    TMP DP  RH WIND       PRES   REMARKS
WASHINGTON NAT CLEAR     85  64  49 N6        30.11R
DULLES         SUNNY     84  64  50 CALM      30.12R
ANDREWS AFB    CLEAR     82  64  55 SE3       30.11R
FT BELVOIR     CLEAR     83  67  58 S5        30.11R
QUANTICO       CLEAR     85  68  56 SE6       30.11S
COLLEGE PARK*  CLEAR     82  62  49 CALM      30.11R
LEESBURG*      SUNNY     82  66  57 CALM      30.13R
MANASSAS*      SUNNY     83  69  62 SE5       30.12R
GAITHERSBURG*  CLEAR     79  62  56 CALM      30.14R

$$

MDZ006>007-011-014-210000-
BALTIMORE METRO

CITY           SKY/WX    TMP DP  RH WIND       PRES   REMARKS
BWI AIRPORT    CLEAR     83  61  47 VRB5      30.11R
MD SCIENCE CTR   N/A     84  59  42 MISG      30.10R
MARTIN STATE   CLEAR     82  66  57 CALM      30.12S
ANNAPOLIS      CLEAR     82  67  60 SE6       30.10S
FORT MEADE*    CLEAR     73  66  78 NW3       30.13S

$$

MDZ012-015-019>023-210000-
MARYLAND EASTERN SHORE

CITY           SKY/WX    TMP DP  RH WIND       PRES   REMARKS
OCEAN CITY     CLEAR     77  69  76 S3        30.13R
SALISBURY      CLEAR     82  64  54 NW5       30.12R
BAY BRIDGE AP* CLEAR     82  64  54 SE6       30.11S
CAMBRIDGE*     CLEAR     81  66  61 CALM      30.12S

$$

MDZ017>025-210000-
SOUTHERN MARYLAND

CITY           SKY/WX    TMP DP  RH WIND       PRES   REMARKS
PATUXENT RIVER CLEAR     80  70  71 CALM      30.12R
ST INIGOES     CLEAR     80  70  71 E3        30.11S
LEONARDTOWN*   CLEAR     79  68  69 SE5       30.14R

$$

MDZ003>005-210000-
NORTH CENTRAL MARYLAND

CITY           SKY/WX    TMP DP  RH WIND       PRES   REMARKS
FREDERICK*     NOT AVBL
HAGERSTOWN APT SUNNY     82  59  45 SE5       30.13S
WESTMINSTER*   CLEAR     84  63  48 CALM      30.14S

$$

MDZ501>502-210000-
WESTERN MARYLAND

CITY           SKY/WX    TMP DP  RH WIND       PRES   REMARKS
OAKLAND*       SUNNY     73  59  60 CALM      30.20S
CUMBERLAND*    SUNNY     82  63  51 CALM      30.15S

$$

VAZ025>031-210000-
SHENANDOAH VALLEY

CITY           SKY/WX    TMP DP  RH WIND       PRES   REMARKS
WINCHESTER*    SUNNY     79  63  57 E6        30.13R
FRONT ROYAL*   MOSUNNY   82  70  65 E5        30.11S
LURAY*         PTSUNNY   82  70  65 CALM      30.13R
NEW MARKET*    PTSUNNY   82  67  60 SE5       30.10S
STAUNTON*      CLOUDY    81  67  62 CALM      30.16R
WAYNESBORO*    CLOUDY    82  67  61 SE5       30.15S

$$

WVZ021-048>050-054>055-210000-
EASTERN WEST VIRGINIA PANHANDLE

CITY           SKY/WX    TMP DP  RH WIND       PRES   REMARKS
MARTINSBURG    SUNNY     81  63  54 E5        30.11S
PETERSBURG*    MOSUNNY   85  74  70 CALM      30.12R HX  93

$$

VAZ036>039-050-210000-
CENTRAL FOOTHILLS

CITY           SKY/WX    TMP DP  RH WIND       PRES   REMARKS
CHARLOTTESVILL MOSUNNY   84  70  62 NE6       30.12R
CULPEPER*      MOSUNNY   84  69  61 CALM      30.12R
ORANGE*        SUNNY     82  68  61 CALM      30.12R
GORDONSVILLE*  SUNNY     83  71  65 CALM      30.11R
WARRENTON*     SUNNY     84  65  52 CALM      30.12R

$$

VAZ055>057-210000-
NORTH AND CENTRAL PIEDMONT

CITY           SKY/WX    TMP DP  RH WIND       PRES   REMARKS
FREDERICKSBRG* SUNNY     85  69  59 E3        30.10S
STAFFORD*      SUNNY     82  68  63 E6        30.15S

$$

NCZ024-NYZ072-PAZ021-071-VAZ022-071-210000-
OTHER REGIONAL OBSERVATIONS

CITY           SKY/WX    TMP DP  RH WIND       PRES   REMARKS
NEW YORK CITY  CLEAR     80  57  45 VRB6      30.11R
PHILADELPHIA   PTCLDY    83  58  42 N9        30.11R
PITTSBURGH     MOSUNNY   81  60  48 CALM      30.12S
ROANOKE        MOSUNNY   87  63  44 S9        30.14S
RICHMOND       PTCLDY    85  70  60 E7        30.11R
RALEIGH        MOSUNNY   90  68  48 E9        30.10R HX  94

$$

ANZ530>537-210000-
MARINE OBSERVATIONS

STATION/POSITION TIME  TEMP    WIND        PRES
                       AIR SEA DIR/SP/G
                 (UTC) (F)     (DEG/KT/KT) (MB)
THOMAS PT LIGHT  2300   81 82  140/  4/  4   N/A
BALT KEY BRIDGE  2242   81     120/  7/  8 1019.4S
COVE POINT       2242   81     120/  2/  3 1020.4R
LEWISETTA        2242   81 84  110/  7/  8 1019.8R
SOLOMONS ISLAND  2242   81 81   80/  4/  5   N/A
PINEY POINT      2236          150/  7/  8   N/A

$$





USA.gov is the U.S. government's official web portal to all federal, state and local government web resources and services.